Location: *
(51.8167°N, 12.5000°E)
Time: 17:54:09
(UTC+00:00)

Cosmos 2263 Rocket - Visible Passes

Search period start: 15 December 2019 00:00
Search period end: 25 December 2019 00:00
Orbit: 825 x 847 km, 71.0° (Epoch: 14 December)

Date Brightness Start Highest point End Pass type
(mag) Time Alt. Az. Time Alt. Az. Time Alt. Az.
15 Dec 5.0 02:00:41 11° ENE 02:00:41 11° ENE 02:01:20 10° ENE visible
15 Dec 2.4 03:42:26 64° ENE 03:42:26 64° ENE 03:47:19 10° NNE visible
15 Dec 3.0 05:24:10 23° WNW 05:26:13 29° NW 05:31:03 10° NNE visible
16 Dec 3.1 03:26:47 42° NE 03:26:47 42° NE 03:30:33 10° NE visible
16 Dec 2.9 05:08:31 29° WNW 05:09:23 30° NW 05:14:18 10° NNE visible
17 Dec 3.7 03:10:58 30° NE 03:10:58 30° NE 03:13:45 10° NE visible
17 Dec 2.9 04:52:41 32° NW 04:52:41 32° NW 04:57:34 10° NNE visible
18 Dec 4.2 02:55:02 22° NE 02:55:02 22° NE 02:56:58 10° NE visible
18 Dec 3.1 04:36:45 31° NNW 04:36:45 31° NNW 04:40:49 10° NNE visible
18 Dec 4.0 06:18:54 10° NW 06:21:30 13° NNW 06:24:07 10° N visible
19 Dec 4.6 02:39:00 17° NE 02:39:00 17° NE 02:40:11 10° NE visible
19 Dec 3.3 04:20:43 29° N 04:20:43 29° N 04:24:04 10° NNE visible
19 Dec 3.9 06:02:26 11° NW 06:04:38 14° NNW 06:07:23 10° N visible
20 Dec 4.9 02:22:55 12° NE 02:22:55 12° NE 02:23:24 10° NE visible
20 Dec 3.6 04:04:37 25° N 04:04:37 25° N 04:07:19 10° NNE visible
20 Dec 3.9 05:46:19 13° NW 05:47:46 14° NNW 05:50:39 10° N visible
21 Dec 3.9 03:48:27 22° N 03:48:27 22° N 03:50:34 10° NNE visible
21 Dec 3.9 05:30:09 14° NNW 05:30:54 14° NNW 05:33:55 10° N visible
22 Dec 4.2 03:32:15 18° NNE 03:32:15 18° NNE 03:33:49 10° NNE visible
22 Dec 3.9 05:13:57 15° NNW 05:14:02 15° NNW 05:17:10 10° N visible
23 Dec 4.4 03:16:01 15° NNE 03:16:01 15° NNE 03:17:04 10° NNE visible
23 Dec 3.9 04:57:42 15° NNW 04:57:42 15° NNW 05:00:26 10° N visible
24 Dec 4.6 02:59:44 13° NNE 02:59:44 13° NNE 03:00:19 10° NNE visible
24 Dec 4.0 04:41:26 15° NNW 04:41:26 15° NNW 04:43:42 10° NNE visible
24 Dec 4.3 06:25:57 10° N 06:26:51 10° N 06:27:44 10° N visible
